Regional Weather Roundup
Issued by NWS State College, PA

Home | Current Version | Previous Version | Text Only | Print | Product List | Glossary Off
Versions: 1 2 3 4 5 6 7 8 9 10 11 12 13 14 15 16 17 18 19 20 21 22 23 24 25 26 27 28 29 30 31 32 33 34 35 36 37 38 39 40 41 42 43 44 45 46 47 48 49 50

000
ASUS41 KCTP 120510
RWRCTP

REGIONAL WEATHER ROUNDUP
NATIONAL WEATHER SERVICE STATE COLLEGE PA
1200 AM EST FRI FEB 12 2016

Note: "fair" indicates few or no clouds below 12,000 feet with no
significant weather and/or obstructions to visibility.

* = STATION THAT DOES NOT REPORT PRECIPITATION /E.G. RAIN...SNOW...ETC/
    THUNDER OR FOG.

PAZ002>004-007>009-013>016-020>023-029>032-120600-
WESTERN PENNSYLVANIA

CITY           SKY/WX    TMP DP  RH WIND       PRES   REMARKS
ERIE           CLOUDY    18   3  52 W6        30.23F WCI  10
MEADVILLE      PTCLDY     8   3  80 S6        30.18F WCI  -2
FRANKLIN*      CLEAR      5   0  78 SW5       30.20S WCI  -4
NEW CASTLE     FAIR       3   0  87 S3        30.24F
BEAVER COUNTY  NOT AVBL
BUTLER*        CLEAR      9   1  72 SW3       30.25F
PITTSBURGH INT CLEAR      8  -2  63 CALM      30.23F
PITTSBURGH     CLEAR     12  -1  56 SW7       30.22F WCI   1
INDIANA*       CLEAR     10   7  85 CALM      30.24S
LATROBE        CLEAR      5  -2  72 CALM      30.25S
WASHINGTON CO* CLOUDY     1   0  92 CALM      30.23F
$$

PAZ004>006-010>012-017>019-024>028-033>037-041-042-045-046-049>053-120600-
CENTRAL PENNSYLVANIA

CITY           SKY/WX    TMP DP  RH WIND       PRES   REMARKS
BRADFORD       LGT SNOW   8   3  80 W7        30.08F WCI  -3
DUBOIS         MOCLDY     4   2  91 W8        30.14S WCI  -9
CLEARFIELD     PTCLDY    10   1  67 W6        30.17F WCI   0
JOHNSTOWN      PTCLDY     8  -4  58 W8        30.11S WCI  -4
ALTOONA        CLEAR     12   2  64 NW6       30.20R WCI   3
STATE COLLEGE  PTCLDY    11   3  70 W13G21    30.20S WCI  -4
WILLIAMSPORT   PTCLDY    15   2  56 MISG      30.22R
SELINSGROVE    CLEAR     14  -2  49 W5        30.25R WCI   6
FT INDIANTOWN  CLEAR     16  -3  43 W9        30.24R WCI   4
CAPITAL CITY   CLEAR     18   0  45 W13       30.27S WCI   5
HARRISBURG     PTCLDY    19   4  51 NW21      30.27R WCI   3
YORK           CLEAR     15   0  51 W8        30.26R WCI   4
$$

PAZ038>040-043-044-047-048-054-055-060>062-067>071-120600-
EASTERN PENNSYLVANIA

CITY           SKY/WX    TMP DP  RH WIND       PRES   REMARKS
SCRANTON       PTCLDY    12  -2  53 W8        30.16R WCI   0
MOUNT POCONO   CLEAR      7  -4  60 NW15G28   30.03S WCI -10
ALLENTOWN      MOCLDY    18   3  52 W10G16    30.22R WCI   6
QUAKERTOWN*    MOCLDY    16   0  48 NW5       30.22S WCI   9
READING        CLEAR     17  -2  43 W10       30.25R WCI   5
LANCASTER      CLEAR     11   0  61 W9        30.26R WCI  -2
COATESVILLE    CLEAR     14   1  57 NW12      30.24S WCI   0
POTTSTOWN      CLEAR     17  -2  43 W7        30.26R WCI   8
BLUE BELL        N/A     18   0  45 W5        30.23S WCI  11
DOYLESTOWN     CLEAR     16  -2  45 W7G17     30.22R WCI   6
WILLOW GROVE   NOT AVBL
NORTH PHILA    CLEAR     20   0  41 NW16G23   30.26S WCI   6
PHILADELPHIA   CLEAR     21  -3  35 NW12      30.28R WCI   9
$$



USA.gov is the U.S. government's official web portal to all federal, state and local government web resources and services.